星链-3304 (STARLINK-3304 )

导读 | 星芒AI

STARLINK-3304 是 SpaceX Starlink 项目中的一颗低轨通信卫星,属于第 14 批组网发射的卫星之一。该卫星旨在为全球用户提供高速互联网服务,尤其关注网络覆盖不足的地区。它运行在约 550 公里的轨道高度,配备先进通信设备,支持宽带数据传输。作为 Starlink 卫星群的一部分,STARLINK-3304 有助于构建全球性、低延迟的互联网接入系统,提升远程通信能力。

基本信息
目录编号:
50161
目录名称:
STARLINK-3304
国际标识:
2021-125F
轨道中心:
EARTH
卫星名称:
星链-3304
卫星全名:
星链-3304 (STARLINK-3304 )
卫星状态:
在轨 (已飞行1463 天)
发射日期:
2021-12-18 UTC
国别 :
美国 (US)
星等 :
--
轨道信息
数据来源 国际轨道数据 AOE轨道数据
星历时间 2025-12-20T08:26:54+0800
11小时前
查看轨道信息
2025-12-19T10:00:00+0800
1天前
查看轨道信息
半长轴 6917.9km 6917.888km
偏心率 0.0001506 0.0001336
轨道倾角 53.217° 53.217°
近地点辐角 89.635° 73.792°
升交点赤经 256.780° 260.981°
平近点角 270.482° 242.918°
近地点 538.721km 538.828km
远地点 540.805km 540.678km
周期 95.438分钟 95.438分钟
每日圈数 15.088338 15.088378
详细信息
固有亮度:
5
最大亮度:
2.5
卫星平台:
Starlink v1.5
覆盖范围:
全球
运营商:
太空探索技术公司
运营商所在国:
美国
制造商(研发单位):
太空探索技术公司
制造商所在国:
美国
使用方式:
暂无
卫星简介
星链(Starlink)计划是由太空探索技术公司(SpaceX)提出的一个巨型低轨卫星互联网星座项目,计划在2019年至2024年间在太空搭建由约1.2万颗卫星组成的“星链”网络,其中1584颗将部署在地球上空550千米处的近地轨道,并从2020年开始工作。该卫星仍在工作。
2D轨道图
3D轨道图
轨道高度分析图
轨道倾角分析图
轨道综合分析图
查看轨道综合分析图